Location: Corralito
(10.2667°N, 66.9500°W)
Time: 17:38:05
(UTC+00:00)

Cosmos 1805 - Pass Details

Date: 23 March 2023
Orbit: 507 x 515 km, 82.5° (Epoch: 09 June)

Event Time Altitude Azimuth Distance (km) Brightness Sun altitude
Rises 13:15:17 0° 283° (WNW) 2,633 6.3 39.7°
Reaches altitude 10° 23:35:28 10° 168° (SSE) 1,716 5.7 -14.8°
Maximum altitude 23:39:05 47° 94° (E) 674 3.3 -15.7°
Drops below altitude 10° 23:42:43 10° 19° (NNE) 1,716 5.7 -16.6°
Sets 23:44:53 0° 13° (NNE) 2,601 6.7 -17.1°
